RH
61 58 53 48 47 47 47 46 46 48 48 48 51 52 51 49 48 48 48 47 47 48 50 52 54 53 53 53 47 44 49 50 48 49 48 47 48 51 52 50 45 37
60 57 54 47 45 46 47 47 47 47 47 48 50 50 50 48 46 45 45 44 44 44 46 48 49 49 48 50 48 45 47 47 43 44 45 44 43 46 48 48 45 38
61 58 54 47 46 48 48 48 46 46 47 48 50 50 50 48 45 45 45 44 44 45 45 45 46 46 46 46 46 44 44 43 41 42 45 45 45 45 46 47 46 42
65 61 54 47 47 50 50 48 46 45 47 49 51 51 50 48 47 47 48 48 47 47 47 46 44 44 45 44 43 43 43 43 42 42 43 45 46 46 47 48 48 45
67 63 57 49 47 51 51 49 48 46 47 50 51 50 49 49 47 47 49 50 50 49 48 48 47 46 45 43 42 41 42 44 43 41 41 43 44 45 45 45 46 45
68 64 60 52 46 50 51 51 53 53 52 52 50 48 48 47 46 46 48 49 49 49 49 50 50 49 47 44 44 42 40 42 42 39 38 39 39 41 41 40 39 40
70 67 63 55 47 48 52 54 55 56 58 55 50 47 47 46 44 45 48 47 46 46 47 50 51 51 49 47 46 44 42 43 43 38 36 37 37 37 38 39 37 36
72 70 66 60 50 46 50 53 50 50 56 58 53 47 44 43 41 43 45 44 43 44 45 47 49 50 51 49 48 48 48 46 44 41 39 40 41 38 37 40 41 40
72 70 67 64 56 48 49 50 47 48 55 59 58 50 43 41 40 41 42 41 41 43 44 46 46 49 52 51 50 50 51 52 50 48 47 47 44 40 37 41 45 45
71 70 70 69 63 55 52 50 48 51 54 55 55 50 46 43 41 41 40 39 41 41 42 46 47 49 52 51 52 52 52 54 55 54 53 50 48 46 43 44 47 48
70 69 69 72 70 62 56 52 49 49 50 49 49 48 47 46 44 41 39 39 41 40 41 45 46 50 52 52 55 55 54 55 55 56 57 55 55 56 55 53 52 52
71 71 70 71 71 65 60 57 52 49 45 45 47 46 47 48 45 42 42 41 41 39 40 42 45 49 52 54 58 59 58 58 58 59 60 59 60 61 61 61 61 59
70 72 72 72 72 70 66 63 59 53 45 43 45 46 48 48 46 44 43 41 40 39 40 42 46 48 50 54 58 60 61 61 63 66 64 62 63 62 62 63 64 63
69 70 72 72 73 72 69 66 63 60 56 50 47 47 47 46 45 45 45 44 44 45 46 47 49 51 53 57 58 59 62 63 66 68 65 63 65 66 67 67 67 67
69 71 73 72 72 73 70 67 66 67 67 65 61 58 53 48 45 45 49 52 50 51 55 57 58 58 59 60 59 60 63 64 66 69 69 69 69 70 69 69 69 69
70 72 73 71 72 75 74 72 74 74 73 74 73 69 61 55 52 49 51 53 54 56 59 62 68 70 66 63 63 64 66 67 70 72 73 72 73 75 73 71 70 69
68 70 71 70 71 72 72 73 74 76 78 79 77 72 68 69 70 68 63 61 61 63 66 73 81 79 72 69 66 65 68 70 71 75 78 77 78 80 78 72 68 68
63 64 66 69 70 70 69 69 68 71 77 78 77 78 81 85 84 77 70 66 63 64 72 84 87 78 74 75 70 63 61 62 71 84 87 82 81 84 79 69 65 67
61 62 63 67 69 68 67 69 69 70 72 76 81 84 88 93 87 75 71 69 66 71 78 83 82 77 77 79 74 66 59 63 77 83 74 69 77 83 77 67 64 66
49 51 55 60 63 65 67 70 72 72 72 76 84 85 86 90 87 81 80 78 77 82 82 79 80 79 79 81 78 69 64 71 80 74 66 71 81 79 71 65 64 64
34 37 41 44 49 56 61 64 68 73 76 79 83 82 81 84 85 85 86 84 83 84 79 80 85 82 82 86 80 70 71 78 79 71 67 71 72 65 60 58 58 58
32 33 35 36 38 42 45 49 55 64 70 73 73 71 73 76 77 77 79 79 81 81 80 83 85 79 80 86 81 75 76 77 73 64 57 57 56 54 57 60 61 60
36 35 35 35 36 36 36 37 43 50 54 58 59 60 64 67 67 66 68 70 74 79 81 81 75 64 65 76 81 79 72 64 59 52 47 50 52 52 57 60 57 56
38 38 38 38 37 36 35 35 38 42 45 48 50 52 54 59 61 61 64 66 69 73 76 75 68 60 62 72 79 74 61 52 50 46 45 52 53 53 59 55 44 45
37 39 40 41 40 39 40 40 39 39 41 44 46 45 47 52 53 53 57 58 60 65 69 69 66 65 71 78 76 67 56 50 48 46 48 55 54 54 60 58 51 56
35 37 40 44 44 43 43 44 42 40 41 43 43 40 42 45 42 41 43 45 50 56 58 59 59 62 69 75 73 65 57 51 49 48 51 56 55 54 58 60 60 61
Wind_Speed
10 10 10 10 10 9 10 9 10 10 10 11 11 11 11 10 9 9 9 8 8 9 9 9 9 9 9 9 10 10 10 10 10 10 10 10 11 11 11 10 9 8
11 10 10 10 9 10 10 10 10 10 10 11 11 12 12 12 10 9 9 9 9 9 9 9 9 9 9 9 9 10 10 10 10 9 10 10 10 10 10 10 10 9
12 11 11 10 10 11 10 10 10 9 10 10 11 12 12 12 12 10 9 9 9 9 9 9 9 9 10 10 9 10 10 10 10 9 9 9 9 9 9 9 9 9
12 12 11 11 11 11 11 10 10 10 10 10 11 11 12 12 13 11 10 9 9 9 9 9 9 10 10 9 10 10 10 9 9 8 8 9 8 8 8 8 8 9
12 12 11 12 12 12 11 11 10 10 11 11 11 11 12 13 13 12 11 10 9 9 9 9 9 9 9 9 9 9 9 9 8 8 8 8 8 7 7 8 8 8
12 12 12 12 13 12 12 11 10 10 11 11 11 11 12 13 13 13 12 10 10 10 9 9 8 8 8 8 8 8 8 8 7 7 7 7 6 6 6 6 7 7
11 12 12 12 14 14 12 11 11 11 10 10 11 11 12 13 13 13 13 11 11 10 9 9 8 8 8 7 7 7 7 7 6 5 6 6 5 5 5 5 5 6
11 11 12 12 14 14 13 13 12 12 11 10 11 11 12 12 12 13 13 12 12 11 10 10 9 9 8 7 7 7 6 6 5 4 5 5 4 3 4 4 4 4
11 12 13 13 14 14 14 14 14 13 12 11 10 11 12 12 12 13 13 13 12 11 11 10 10 9 8 8 8 7 7 6 5 4 4 4 3 3 3 4 3 3
12 13 13 14 14 14 14 15 14 13 13 12 11 11 12 11 12 12 12 12 12 12 12 11 11 10 10 9 9 8 7 6 5 5 4 4 3 3 2 3 3 2
12 12 13 14 14 14 14 15 15 13 13 12 11 11 12 11 12 12 12 13 13 12 12 12 11 11 10 10 10 9 8 8 7 6 5 5 4 3 3 3 4 3
11 12 13 14 14 14 14 14 14 14 13 12 12 12 12 11 12 12 12 13 13 13 12 12 12 11 11 10 10 10 10 9 8 8 7 7 6 6 6 6 5 5
10 11 12 13 13 13 13 14 14 14 13 12 12 12 12 12 12 13 13 13 13 13 12 12 11 11 11 10 10 10 10 10 9 8 8 8 8 8 9 9 8 7
8 9 9 11 11 11 12 13 13 12 12 11 11 11 12 13 14 14 13 13 12 11 11 11 11 11 10 10 10 10 10 10 10 10 10 10 11 11 11 11 10 10
7 7 7 9 9 10 10 10 10 9 9 9 9 10 11 13 14 15 14 13 12 11 11 11 12 12 12 11 11 11 11 11 11 11 12 12 13 13 13 12 11 10
5 5 5 6 7 8 10 9 8 8 9 10 11 13 13 13 13 14 14 13 12 12 14 14 13 11 11 13 14 13 11 12 12 13 14 14 14 14 14 13 12 10
5 4 4 4 4 6 8 8 8 9 10 12 13 14 13 12 13 12 11 12 12 13 14 14 11 9 10 13 16 15 13 13 13 14 15 14 14 14 13 13 11 9
4 4 3 3 3 3 5 6 7 8 9 9 10 10 11 14 16 14 11 12 14 14 13 10 7 8 12 14 16 18 18 17 15 13 11 9 10 13 12 10 10 8
3 3 2 2 2 3 3 4 6 7 7 7 8 10 13 14 16 15 13 13 15 13 12 10 8 10 14 15 16 17 19 18 16 13 11 11 13 13 10 7 7 7
3 3 2 1 1 2 3 4 5 5 6 7 7 9 11 11 12 13 12 13 13 12 11 11 11 13 15 15 15 14 14 16 15 11 12 15 14 9 5 4 5 6
4 3 3 2 1 1 2 4 5 5 6 7 7 8 9 10 11 12 12 13 14 13 12 11 12 14 13 12 13 13 14 14 11 8 11 12 7 5 4 4 4 4
3 3 2 2 2 1 3 4 4 5 6 7 7 8 9 10 11 11 12 13 13 12 12 12 13 13 10 11 13 13 12 13 10 8 9 6 4 4 4 4 4 3
4 4 4 3 3 3 4 5 5 5 6 7 7 8 8 9 10 10 10 11 11 10 11 12 12 11 10 10 13 13 14 12 9 8 7 6 5 5 5 4 4 3
5 5 5 6 5 6 6 6 6 7 7 8 8 8 8 9 9 9 9 9 9 9 10 12 12 12 14 14 15 17 15 11 9 8 8 6 5 5 5 3 4 4
7 7 6 7 7 7 7 7 7 8 8 8 9 9 9 9 9 10 9 10 10 10 11 12 12 13 16 17 17 18 16 12 10 9 8 7 6 6 6 4 5 7
7 7 7 7 8 8 8 8 8 9 8 8 10 10 10 10 11 11 10 10 10 11 13 13 12 14 16 16 17 17 17 15 12 9 9 9 8 8 7 7 7 8
Wind_Direction
160 164 163 162 160 158 157 156 156 155 150 145 140 134 130 123 117 112 105 102 99 95 95 95 92 89 85 76 75 79 74 69 68 63 62 60 58 57 52 47 43 44
169 168 164 164 160 157 160 158 157 156 152 149 144 139 136 130 125 120 114 110 104 100 98 97 94 92 91 86 81 82 78 74 74 69 68 66 62 59 53 50 46 41
173 170 164 163 161 159 159 156 156 156 153 150 146 143 141 136 132 128 124 118 110 106 103 100 99 97 95 93 88 86 83 78 77 75 73 71 66 63 59 54 49 43
173 170 166 164 163 159 157 157 157 156 154 154 151 149 147 142 138 135 131 126 117 112 109 104 104 101 98 98 93 90 88 83 81 80 78 75 71 68 64 56 51 48
176 173 169 164 163 162 159 160 159 157 157 156 155 157 155 149 145 142 139 134 128 122 117 113 110 107 104 102 100 98 95 91 88 86 84 82 76 72 68 63 57 50
177 176 172 165 165 165 163 163 163 160 159 160 161 164 163 157 152 148 147 144 140 135 130 125 120 117 114 111 108 105 103 103 101 99 96 89 81 77 71 66 63 56
174 176 174 170 168 168 167 166 166 163 161 164 167 169 169 166 159 156 154 152 150 147 142 138 134 129 125 122 118 113 111 112 112 112 106 99 93 86 76 66 63 64
173 175 178 176 173 172 171 167 167 169 168 170 174 175 175 173 167 162 160 159 159 156 153 150 147 144 140 136 131 127 125 122 122 121 112 110 112 104 96 84 66 67
175 177 180 180 178 177 175 170 171 175 176 178 180 177 177 178 173 169 168 167 166 164 163 161 158 155 153 150 148 146 144 140 140 138 129 130 141 149 137 117 95 85
177 179 181 181 182 182 180 177 176 177 180 183 182 179 182 182 176 176 176 173 173 172 170 169 167 165 165 162 160 161 160 158 158 160 162 168 171 172 155 139 143 145
180 183 184 182 186 188 185 183 181 180 183 186 185 183 184 184 183 185 184 181 182 181 177 177 177 174 173 170 168 168 169 168 172 176 179 188 193 190 184 169 171 180
183 185 188 188 190 192 191 188 186 186 188 191 193 191 187 188 191 192 193 192 193 194 192 190 187 185 184 179 175 175 176 176 178 183 189 196 203 203 202 198 193 195
184 184 188 189 189 193 194 194 194 195 196 197 200 199 197 197 197 199 203 205 206 207 206 201 197 195 192 189 187 184 184 188 190 193 200 206 213 216 210 205 203 202
181 181 186 185 186 190 194 198 201 202 203 206 209 210 209 208 209 210 211 213 216 215 212 211 208 203 198 197 198 195 194 199 202 204 210 215 217 217 212 207 206 205
163 170 182 185 187 194 198 203 206 208 214 220 224 230 227 221 219 218 216 218 222 220 220 219 211 207 207 204 203 207 207 208 211 211 214 217 217 214 211 209 210 208
133 151 171 180 187 199 207 211 214 222 231 230 232 237 234 230 232 230 225 225 225 224 226 222 211 208 214 211 208 211 214 216 218 216 215 218 219 218 212 207 210 213
114 124 144 162 180 198 206 210 214 222 229 229 230 231 229 236 246 242 234 229 225 230 235 227 213 212 222 220 215 214 218 224 228 226 225 226 224 225 221 207 205 210
111 116 122 142 175 201 207 211 213 214 220 229 231 225 224 234 236 231 231 229 223 232 246 239 217 216 225 230 232 233 235 237 238 240 244 244 236 233 228 210 199 195
107 113 124 140 178 213 212 214 216 212 213 221 225 224 225 229 225 218 223 226 220 229 243 238 228 227 230 237 244 244 241 238 238 243 244 237 233 233 226 204 190 187
82 82 87 107 168 217 220 223 224 221 218 214 218 224 220 212 210 210 214 217 215 225 237 234 234 237 236 239 242 240 238 232 230 238 241 233 225 219 207 184 184 190
59 56 45 33 4 269 250 243 233 229 229 222 221 226 216 208 211 213 214 215 216 224 231 227 227 232 235 241 240 237 235 226 213 219 237 230 207 177 176 175 181 195
22 16 5 339 314 295 273 262 248 238 237 232 231 233 228 224 224 221 222 224 222 222 223 219 219 222 230 246 243 229 215 206 199 213 226 209 160 149 152 136 139 164
352 344 333 315 301 288 277 271 260 249 242 237 234 232 225 222 222 219 221 222 219 216 215 213 209 198 196 219 223 203 190 194 207 217 205 176 154 144 129 131 148 151
346 337 329 320 307 296 291 283 272 265 255 242 238 235 226 219 216 214 212 209 208 208 204 203 200 189 184 193 196 187 184 197 217 211 188 172 166 144 119 146 184 169
339 332 327 320 310 304 301 291 279 270 258 244 241 237 226 217 216 216 212 204 201 202 200 199 203 203 199 195 192 188 188 199 217 210 187 178 181 161 132 131 162 173
323 322 322 316 308 305 300 291 280 270 257 242 239 236 224 218 222 225 221 207 194 193 196 197 199 203 203 198 196 196 196 202 217 215 192 189 191 175 152 136 140 157